Location: Newark
(8.1700°N, 77.4300°E)
Time: 09:36:29
(UTC+00:00)

Hubble Space Telescope - Pass Details

Date: 28 August 2019
Orbit: 536 x 540 km, 28.5° (Epoch: 17 September)

Event Time Altitude Azimuth Distance (km) Brightness Sun altitude
Rises 13:57:56 0° 301° (WNW) 2,664 5.8 -14.8°
Reaches altitude 10° 14:00:12 10° 303° (WNW) 1,774 4.5 -15.3°
Maximum altitude 14:04:17 74° 28° (NNE) 554 0.7 -16.3°
Enters shadow 14:05:56 35° 107° (ESE) 875 1.3 -16.7°
